Content
SEND FEEDBACK

Daily
Averages
Monthly
Summary
Mexico

PLAYA DEL CARMEN, QUINTANA ROO


Home > North America > Mexico > Quintana Roo
Elevation: 30 feet     Latitude: 20 38N     Longitude: 087 04W

WEATHER
 
SELECT A DAY
Number of Records: 196,832;   Date Range: 2/21/06 - 9/18/14
 
SHARE

PRINT THIS DATA

[ ← Previous Day ]
WEATHER ALMANAC - MARCH 17, 2013
[ Next Day → ]
[ °C ]   °F
Weather ElementAverageHighLow
Temperature64.5 °F80.6 °F (2:35 pm)48.2 °F (4:15 am)
Dewpoint33.8 °F62.6 °F (11:55 pm) (7:00 pm)
Humidity57.2 %94 % (11:55 pm)34 % (2:35 pm)
Barometer30.11 in30.18 in (11:15 am)30.03 in (4:55 pm)
Wind Speed3.3 mph11.5 mph (1:15 pm)
Wind Gust16.1 mph (1:35 pm)
Weather ElementAverage
Visibility7.4 mi
Wind DirectionESE (102.3 °)

Weather ElementTotal
Precipitation---
Heating Degree Days0.6 (Base 65)
Growing Degree Days14.4 (Base 50)
Averaged from 70 records on March 17, 2013
WEATHER CONDITIONS BREAKOUT
WIND DIRECTION BREAKOUT
WEATHER BY HOUR - MARCH 17, 2013
[ °C ]   °F
Local TimeTemperatureDewpointHumidityBarometerVisibilityWind DirectionWind SpeedGust SpeedPrecipitationEventsConditions
12:35 AM53.6 °F0.0 °F30.14 in1.0 miCalmMist
12:55 AM53.6 °F0.0 °F30.14 in3.0 miCalmClear
1:15 AM51.8 °F0.0 °F30.14 in5.0 miCalmHaze
1:35 AM51.8 °F0.0 °F30.13 in1.5 miCalmMist
1:55 AM51.8 °F0.0 °F30.13 in0.5 miCalmFogFog
2:15 AM51.8 °F0.0 °F30.13 in0.2 miCalmFogFog
2:35 AM50.0 °F0.0 °F30.12 in4.0 miCalmHaze
2:55 AM50.0 °F0.0 °F30.12 in0.2 miCalmFogFog
3:15 AM50.0 °F0.0 °F30.12 in0.2 miCalmFogFog
3:35 AM50.0 °F0.0 °F30.12 in1.0 miSouth (170°)3.5 mphMist
3:55 AM50.0 °F0.0 °F30.11 in1.2 miSSE (150°)3.5 mphMist
4:15 AM48.2 °F0.0 °F30.11 in1.0 miSSE (150°)3.5 mphMist
4:35 AM48.2 °F0.0 °F30.10 in0.5 miCalmFogFog
4:55 AM50.0 °F0.0 °F30.10 in2.5 miSSE (150°)3.5 mphClear
5:15 AM51.8 °F0.0 °F30.10 in4.0 miSE (140°)3.5 mphHaze
5:35 AM51.8 °F0.0 °F30.11 in4.0 miCalmHaze
5:55 AM51.8 °F0.0 °F30.11 in2.0 miCalmClear
6:35 AM50.0 °F0.0 °F30.12 in1.0 miCalmMist
6:55 AM51.8 °F0.0 °F30.13 in3.0 miESE (120°)3.5 mphClear
7:15 AM51.8 °F0.0 °F30.14 in4.0 miCalmHaze
7:35 AM51.8 °F0.0 °F30.14 in4.0 miESE (120°)3.5 mphHaze
7:55 AM51.8 °F0.0 °F30.14 in4.0 miESE (120°)4.6 mphHaze
8:15 AM53.6 °F0.0 °F30.15 in5.0 miCalmHaze
8:35 AM55.4 °F0.0 °F30.15 in7.0 miESE (120°)3.5 mphClear
8:55 AM57.2 °F0.0 °F30.16 in10.0 miCalmClear
9:15 AM59.0 °F0.0 °F30.16 in10.0 miESE (110°)3.5 mphClear
9:35 AM60.8 °F0.0 °F30.17 in10.0 miSE (130°)4.6 mphClear
9:55 AM64.4 °F51.8 °F64 %30.16 in10.0 miESE (120°)5.8 mphClear
10:15 AM68.0 °F51.8 °F56 %30.17 in10.0 miSE (140°)5.8 mphClear
10:35 AM69.8 °F51.8 °F53 %30.16 in10.0 miSE (130°)4.6 mphClear
10:55 AM69.8 °F51.8 °F53 %30.16 in10.0 miSE (130°)6.9 mphClear
11:15 AM71.6 °F51.8 °F50 %30.18 in10.0 miSSE (160°)4.6 mphScattered Clouds
11:35 AM73.4 °F51.8 °F47 %30.17 in10.0 miSouth (170°)6.9 mphScattered Clouds
11:55 AM73.4 °F51.8 °F47 %30.17 in10.0 miSouth (180°)6.9 mphScattered Clouds
12:15 PM75.2 °F51.8 °F44 %30.16 in10.0 miSouth (170°)3.5 mphClear
12:35 PM75.2 °F51.8 °F44 %30.15 in10.0 miSouth (190°)5.8 mphScattered Clouds
12:55 PM77.0 °F51.8 °F41 %30.14 in10.0 miSouth (190°)9.2 mphScattered Clouds
1:15 PM77.0 °F51.8 °F41 %30.13 in10.0 miSSW (200°)11.5 mphMostly Cloudy
1:35 PM77.0 °F50.0 °F39 %30.13 in10.0 miSW (220°)10.4 mph16.1 mphScattered Clouds
1:55 PM77.0 °F50.0 °F39 %30.12 in10.0 miSSW (200°)9.2 mphScattered Clouds
2:15 PM77.0 °F50.0 °F39 %30.11 in10.0 miSSW (200°)8.1 mphMostly Cloudy
2:35 PM80.6 °F50.0 °F34 %30.10 in10.0 miSW (220°)10.4 mph16.1 mphScattered Clouds
2:55 PM78.8 °F50.0 °F36 %30.09 in10.0 miSW (220°)9.2 mphMostly Cloudy
3:15 PM77.0 °F51.8 °F41 %30.09 in10.0 miSouth (190°)9.2 mph16.1 mphScattered Clouds
3:35 PM78.8 °F51.8 °F39 %30.07 in10.0 miSouth (190°)6.9 mphScattered Clouds
3:55 PM77.0 °F50.0 °F39 %30.07 in10.0 miCalmScattered Clouds
4:15 PM78.8 °F50.0 °F36 %30.06 in10.0 miSSW (200°)8.1 mphScattered Clouds
4:35 PM78.8 °F50.0 °F36 %30.05 in10.0 miSSW (210°)6.9 mphClear
4:55 PM77.0 °F51.8 °F41 %30.03 in10.0 miSouth (190°)4.6 mphClear
5:15 PM77.0 °F51.8 °F41 %30.04 in10.0 miSouth (180°)6.9 mphClear
5:35 PM75.2 °F55.4 °F50 %30.05 in10.0 miWSW (240°)5.8 mphScattered Clouds
5:55 PM73.4 °F57.2 °F57 %30.05 in10.0 miWSW (250°)5.8 mphRainLight Rain
6:15 PM73.4 °F57.2 °F57 %30.04 in10.0 miSW (230°)3.5 mphScattered Clouds
6:35 PM73.4 °F57.2 °F57 %30.04 in10.0 miCalmMostly Cloudy
6:55 PM73.4 °F59.0 °F61 %30.04 in10.0 miWNW (290°)3.5 mphMostly Cloudy
7:15 PM71.6 °F59.0 °F64 %30.05 in10.0 miWNW (290°)3.5 mphMostly Cloudy
7:35 PM71.6 °F59.0 °F64 %30.05 in10.0 miWest (280°)3.5 mphMostly Cloudy
7:55 PM69.8 °F59.0 °F68 %30.05 in10.0 miCalmOvercast
8:15 PM69.8 °F60.8 °F73 %30.05 in10.0 miCalmMostly Cloudy
8:35 PM69.8 °F59.0 °F68 %30.06 in10.0 miCalmScattered Clouds
8:55 PM68.0 °F60.8 °F78 %30.05 in10.0 miCalmClear
9:15 PM66.2 °F60.8 °F83 %30.06 in10.0 miCalmClear
9:35 PM66.2 °F59.0 °F78 %30.07 in10.0 miCalmScattered Clouds
9:55 PM64.4 °F59.0 °F83 %30.06 in10.0 miCalmScattered Clouds
10:15 PM66.2 °F60.8 °F83 %30.08 in10.0 miCalmScattered Clouds
10:35 PM66.2 °F59.0 °F78 %30.08 in10.0 miCalmMostly Cloudy
10:55 PM64.4 °F60.8 °F88 %30.09 in10.0 miCalmMostly Cloudy
11:15 PM64.4 °F60.8 °F88 %30.09 in10.0 miCalmScattered Clouds
11:35 PM64.4 °F60.8 °F88 %30.08 in10.0 miEast (100°)3.5 mphScattered Clouds
11:55 PM64.4 °F62.6 °F94 %30.08 in10.0 miCalmScattered Clouds
Hourly data recorded from KPCM, located miles away from Playa del Carmen, Quintana Roo







STORIES FROM OUR PARTNERS